Weather in Fremont

United States     37°32′12″N   121°57′38″W
temp.,
°C
wind,
m/s
gust,
m/s
humid.,
%
clouds,
%
prec.,
mm/h
press.,
hPa
HPBL,
m
16 may, sun
sun1623:00+13w227392 0.0 1012315
02:00+12sw1274100 0.0 1012452
05:00+12s237799 0.1 1013358
08:00+13s127264 0.0 1014597
11:00+19w22493 0.0 1014935
14:00+22nw43445 0.0 10131051
17:00+20nw54473 0.0 1013802
20:00+15nw44640 0.0 1014458
17 may, mon
mon1723:00+13w22736 0.0 1015391
02:00+12wsw127728 0.0 1015314
05:00+11ssw127835 0.0 1016408
08:00+13ssw126916 0.0 1017582
11:00+19w22440 0.0 1016854
14:00+21wnw554150 0.0 1016907
17:00+17wnw5657100 0.0 1017870
20:00+15wnw25619 0.0 1017647
18 may, tue
tue1823:00+13ssw23695 0.0 1018404
02:00+12s22748 0.0 1018177
05:00+11sse23808 0.0 1018105
08:00+13s22670 0.0 1018469
11:00+20wnw34330 0.0 1018922
14:00+22wnw68260 0.0 10171001
17:00+18wnw58290 0.0 1017840
20:00+14w48450 0.0 1017738
19 may, wed
wed1923:00+11wsw39660 0.0 1018780
02:00+11wsw39632 0.0 1017764
05:00+10sw37670 0.0 1017570
08:00+12w485766 0.0 1017908
11:00+15w57410 0.0 10161034
14:00+17w67350 0.0 10151171
17:00+15w79400 0.0 10151021
20:00+11w611590 0.0 1015887
20 may, thu
thu2023:00+10w511670 0.0 1016882
02:00+10w512660 0.0 1016918
05:00+9w511710 0.0 1016784
08:00+11wnw59600 0.0 1017961
11:00+15wnw68382 0.0 10171503
14:00+16wnw78372 0.0 10161475
17:00+15wnw710430 0.0 10151108
20:00+11wnw59643 0.0 1016786